Tracking 21082 objects as of 6-Aug-2020
HD Live streaming from Space Station
objects crossing your sky now

GALILEO 21 (2C7)

Track GALILEO 21 (2C7) now!
GALILEO 21 (2C7) is classified as:


NORAD ID: 43057
Int'l Code: 2017-079C
Perigee: 23,215.6 km
Apogee: 23,242.9 km
Inclination: 56.2 °
Period: 844.7 minutes
Semi major axis: 29600 km
RCS: Unknown
Launch date: December 12, 2017
Source: European Space Agency (ESA)
Launch site: FRENCH GUIANA (FRGUI)
aabbcc
Your satellite tracking list
Your tracking list is empty




NASA's NSSDC Master Catalog

Two Line Element Set (TLE):
1 43057U 17079C   20217.73787277 -.00000008  00000-0  00000+0 0  9991
2 43057  56.2282 280.4736 0004604 266.1705  93.8670  1.70474571 16463
Source of the keplerian elements: AFSPC